Wind_Speed
44 44 45 48 50 51 52 52 54 59 60 60 64 66 69 71 73 77 81 84 89 91 94 96 98 99 101 102 103 105 106 104 103 102 100 100 102 102 102 100 99 97 96 92
49 49 50 52 54 56 57 59 60 61 63 65 66 70 74 77 83 88 93 96 99 102 104 107 108 109 109 109 109 111 110 110 109 106 105 107 106 105 103 102 100 100 97 95
49 49 51 53 56 59 60 64 67 68 70 73 73 75 78 84 91 95 100 103 106 110 113 115 117 118 119 119 119 118 119 120 120 117 116 116 117 116 116 110 105 103 101 100
47 49 51 52 55 60 64 67 71 73 78 80 84 84 86 95 101 106 109 112 115 118 121 121 125 124 123 124 123 120 118 117 116 115 111 111 113 112 113 119 117 112 105 104
49 51 54 58 64 67 69 72 76 79 84 84 86 91 89 96 103 113 119 122 123 124 126 128 125 124 123 120 117 114 112 109 104 103 103 103 104 106 106 109 110 110 109 105
48 52 58 61 65 68 73 76 81 83 91 93 97 98 96 108 119 122 127 128 130 132 135 127 127 127 124 120 112 106 102 99 98 98 97 98 101 103 102 102 104 103 103 104
50 54 61 68 74 79 85 90 92 90 94 99 106 110 111 121 124 132 134 133 135 136 135 134 126 121 108 98 95 92 90 91 92 92 90 89 90 93 95 96 97 98 99 98
53 60 67 70 69 73 73 77 91 104 107 104 98 110 119 129 133 136 136 135 132 130 127 114 105 98 92 89 87 83 83 81 80 78 78 80 80 80 82 83 85 89 88 88
66 70 76 81 84 87 89 93 97 102 100 106 109 110 109 123 127 129 130 124 118 114 107 100 91 83 80 81 79 77 75 72 72 72 73 73 71 71 72 73 71 73 74 73
72 81 86 90 93 97 96 103 108 114 119 118 120 121 121 124 120 113 113 107 103 98 94 91 80 75 74 72 70 69 67 68 69 67 65 61 61 59 59 59 59 59 58 56
88 91 96 102 101 104 105 116 123 125 129 129 124 114 124 117 114 107 100 96 93 86 83 80 76 72 70 68 66 65 63 63 63 59 57 54 53 51 47 46 46 45 44 44
88 94 96 98 100 110 106 120 130 133 131 122 122 113 118 111 104 97 92 89 83 77 75 73 70 67 65 62 60 60 59 57 53 52 50 46 45 42 39 38 37 39 35 29
87 95 94 100 105 114 121 129 139 140 131 121 118 114 110 105 99 97 90 85 78 72 68 64 61 59 57 54 52 51 48 45 42 41 38 36 32 30 31 32 33 29 26 27
92 102 106 109 112 121 128 134 139 138 129 119 116 111 103 103 98 92 87 80 73 68 63 59 55 52 50 47 43 40 37 34 32 29 29 25 25 29 31 31 29 28 27 27
100 107 109 113 119 126 135 135 134 135 128 123 114 105 100 97 91 83 80 73 68 62 55 51 49 46 43 38 33 31 28 27 23 23 22 23 27 31 34 33 32 32 33 34
99 105 109 113 122 131 133 132 134 136 128 120 113 102 97 92 84 77 72 65 58 52 48 46 43 38 32 26 22 23 20 18 17 19 22 28 33 37 38 38 38 38 40 55
103 111 116 121 128 131 132 132 130 128 125 120 106 99 89 86 77 66 63 55 50 46 43 38 33 27 21 16 16 17 13 12 16 23 29 35 40 41 43 42 42 42 57 62
109 117 127 129 127 123 136 131 129 125 124 108 100 90 79 73 68 59 55 50 46 39 32 27 24 18 13 12 12 11 8 11 21 31 37 41 45 46 46 44 41 43 51 53
112 121 131 129 126 127 135 131 131 123 113 98 88 79 69 63 60 52 48 43 36 30 26 19 15 10 9 9 9 9 14 20 27 37 42 46 46 47 47 44 44 50 53 59
120 128 131 131 136 134 138 137 128 112 100 85 75 68 62 57 53 45 40 32 27 22 20 14 11 8 8 9 11 15 19 24 31 40 43 45 47 49 50 54 54 63 72 70
125 127 132 133 138 132 135 133 119 100 86 75 65 59 54 49 44 39 32 25 21 16 12 9 7 6 9 12 18 24 27 30 36 44 46 51 49 55 62 65 75 79 78 75
123 127 133 137 132 132 128 121 99 85 73 65 59 53 46 40 35 29 25 20 14 12 7 6 5 9 14 20 24 27 31 38 45 50 53 56 62 68 77 82 85 81 76 73
122 131 136 134 130 131 131 103 85 75 66 57 50 44 39 34 28 22 16 15 9 6 3 4 8 12 19 24 27 31 36 46 53 56 58 62 72 78 87 87 82 77 73 68
133 134 131 127 119 122 105 85 74 68 58 48 43 39 34 27 22 14 12 9 4 2 6 9 13 19 23 27 31 38 49 55 58 63 67 73 93 91 88 86 81 76 69 65
134 126 128 120 118 109 91 73 70 59 50 45 40 33 26 20 12 9 6 4 2 7 10 13 19 23 26 33 42 52 57 59 64 70 82 97 90 84 86 84 80 75 69 64
130 128 119 110 109 92 73 69 63 52 46 43 33 26 21 10 7 4 3 4 8 12 16 20 25 29 38 46 52 56 60 62 71 86 93 92 89 88 84 78 73 69 69 65
Wind_Direction
300 296 296 296 295 294 295 291 288 286 287 287 288 287 287 286 285 284 282 280 279 278 277 276 276 275 275 276 277 277 278 277 277 277 278 277 276 275 275 277 275 272 272 273
301 296 295 295 295 296 296 294 291 289 287 285 285 286 285 285 283 282 282 281 280 280 280 281 280 279 279 279 279 280 282 283 283 286 286 283 281 279 277 276 275 275 273 271
302 299 296 296 296 295 294 293 291 289 288 287 286 284 283 281 281 280 278 278 278 279 280 279 279 279 279 282 283 284 285 285 284 282 280 278 277 277 277 275 273 271 271 271
306 304 302 300 300 299 298 296 294 292 290 289 288 288 291 287 284 283 282 282 282 282 282 281 281 284 286 285 286 285 284 283 280 278 276 274 272 271 271 270 271 271 269 268
306 306 303 301 304 304 301 299 296 295 293 292 290 290 291 285 286 286 287 288 287 287 288 291 292 294 292 291 289 286 283 281 278 275 271 271 269 268 267 266 264 265 266 265
313 310 308 306 303 300 296 295 294 293 291 289 287 288 291 288 288 288 288 290 291 294 296 299 295 294 293 290 287 284 280 278 274 271 269 268 266 265 262 263 262 262 261 262
310 308 308 305 302 299 298 296 294 294 297 295 291 289 289 289 289 289 291 291 293 295 295 295 294 292 290 287 284 279 276 274 271 268 267 266 264 262 260 260 261 261 260 260
307 307 304 306 307 307 304 306 299 292 289 290 293 290 291 291 290 291 293 295 296 296 295 295 294 291 290 287 283 278 275 273 271 269 269 268 265 262 260 259 259 258 259 261
306 306 308 307 304 307 316 313 310 308 300 293 294 294 301 293 295 298 300 301 302 300 298 296 294 293 289 285 284 281 278 278 275 272 269 265 263 261 258 257 257 258 258 258
307 309 313 313 312 314 317 318 318 313 310 307 307 307 307 302 302 303 304 305 304 302 300 297 294 294 290 288 285 282 280 276 276 273 270 266 262 261 257 255 255 255 254 253
309 311 312 314 317 319 324 323 321 314 311 309 306 314 305 306 307 306 308 307 304 302 300 298 297 294 291 288 285 283 281 277 274 273 270 265 262 258 254 249 248 248 245 244
314 315 316 318 315 319 323 321 316 315 313 315 311 314 310 310 311 311 310 308 304 301 299 298 296 293 289 286 285 282 279 276 275 271 265 261 256 251 246 239 236 233 233 231
314 318 321 322 322 322 326 318 316 315 315 316 317 315 314 315 315 313 312 309 307 305 303 298 295 292 289 286 283 279 277 276 270 265 260 253 247 236 225 218 215 213 212 213
313 320 321 327 325 322 318 316 313 314 317 321 320 317 317 316 315 313 311 309 308 307 302 298 293 290 288 285 282 280 277 272 265 258 247 236 219 208 201 196 190 190 193 184
311 314 321 329 323 317 315 315 313 314 319 323 322 318 318 316 313 312 310 310 310 305 300 296 293 290 289 288 286 280 273 262 252 236 222 204 194 188 181 176 177 176 173 167
320 321 328 325 318 315 316 313 313 317 318 324 320 318 317 314 312 312 309 310 306 300 300 296 295 295 295 292 284 274 264 248 225 208 189 178 178 176 168 171 170 171 166 155
320 326 323 320 317 317 316 314 316 320 321 322 318 316 315 311 311 313 310 307 302 303 303 299 298 297 297 291 268 261 249 230 202 181 170 172 173 168 168 168 168 169 159 160
325 324 321 320 319 319 316 318 321 323 320 320 318 316 313 311 312 313 308 304 306 307 300 298 298 300 291 268 252 237 204 187 181 170 167 170 170 166 165 164 165 163 164 166
323 324 325 321 318 319 316 321 322 323 319 320 318 314 313 314 311 314 306 308 309 303 300 301 302 291 264 243 220 195 168 173 173 166 166 166 166 163 159 157 150 151 155 148
325 324 323 323 320 319 319 322 323 323 319 318 315 314 314 313 313 311 311 312 304 301 302 300 286 258 230 200 175 156 163 170 169 161 163 158 161 155 151 145 149 148 138 139
324 322 324 324 323 319 319 322 321 320 318 316 314 314 314 314 312 314 316 311 303 303 295 286 261 216 195 170 156 158 160 163 160 154 156 152 154 147 142 145 145 138 138 144
320 323 324 326 321 318 321 322 321 319 317 315 317 316 317 313 315 317 316 307 308 298 286 252 210 178 165 159 160 157 155 156 151 149 152 148 145 143 142 144 140 144 146 149
322 323 325 325 321 320 320 320 321 318 316 319 318 317 315 317 318 316 309 308 298 276 232 186 162 157 159 159 156 152 149 146 144 145 143 146 144 140 142 146 148 149 146 148
324 323 324 324 319 317 320 320 320 317 319 319 315 315 320 319 314 311 309 289 271 201 152 144 147 152 157 154 145 140 142 142 143 143 144 142 137 143 148 151 147 148 145 143
322 325 324 320 318 318 317 322 320 320 320 316 316 322 319 317 314 312 284 261 192 134 136 137 141 148 145 138 139 142 145 145 146 143 141 140 144 148 152 150 151 152 148 142
322 323 323 317 317 315 320 322 321 322 317 317 323 325 318 319 320 276 222 149 124 114 124 131 140 138 136 138 142 142 142 143 140 139 142 147 151 154 150 148 150 153 147 145
Height
10829 10823 10818 10811 10805 10799 10793 10787 10781 10772 10767 10763 10753 10744 10736 10726 10717 10706 10698 10691 10683 10677 10671 10664 10658 10652 10646 10642 10636 10630 10626 10623 10622 10620 10619 10618 10616 10616 10616 10618 10620 10621 10624 10629
10817 10811 10806 10798 10792 10787 10782 10775 10768 10762 10755 10747 10742 10732 10723 10713 10698 10687 10676 10667 10658 10649 10642 10636 10628 10622 10616 10611 10607 10601 10598 10595 10592 10593 10590 10589 10587 10586 10586 10586 10590 10593 10597 10600
10803 10798 10792 10787 10779 10772 10767 10759 10752 10745 10737 10726 10725 10714 10706 10691 10677 10664 10651 10640 10631 10624 10617 10609 10600 10594 10587 10579 10572 10568 10565 10561 10558 10557 10558 10556 10553 10552 10548 10551 10556 10559 10568 10572
10791 10784 10777 10770 10765 10758 10752 10744 10735 10726 10715 10708 10697 10690 10677 10664 10649 10634 10622 10611 10601 10591 10581 10573 10563 10554 10549 10545 10543 10538 10532 10526 10522 10517 10516 10515 10517 10518 10517 10516 10516 10521 10532 10539
10780 10774 10766 10759 10752 10744 10736 10726 10714 10703 10689 10681 10669 10659 10647 10632 10618 10599 10587 10576 10567 10556 10546 10537 10528 10518 10510 10504 10497 10491 10486 10483 10479 10475 10476 10475 10476 10477 10478 10478 10482 10488 10493 10503
10767 10761 10752 10742 10734 10725 10714 10704 10692 10683 10664 10654 10642 10634 10632 10601 10579 10568 10552 10544 10534 10521 10507 10498 10489 10478 10468 10460 10454 10448 10444 10439 10436 10436 10435 10437 10436 10436 10440 10443 10447 10453 10461 10465
10754 10745 10737 10726 10716 10708 10696 10680 10666 10661 10644 10629 10615 10604 10593 10568 10550 10530 10520 10512 10497 10482 10469 10458 10448 10437 10425 10418 10412 10407 10401 10396 10395 10395 10395 10398 10400 10401 10407 10411 10416 10421 10427 10435
10738 10732 10720 10709 10699 10686 10673 10656 10635 10618 10613 10607 10602 10576 10552 10534 10516 10502 10490 10475 10465 10448 10426 10415 10407 10399 10388 10378 10373 10369 10363 10363 10362 10362 10363 10365 10370 10372 10378 10382 10389 10394 10399 10407
10725 10720 10704 10689 10677 10663 10642 10626 10607 10586 10584 10568 10553 10538 10535 10508 10488 10469 10451 10431 10417 10401 10386 10375 10368 10362 10355 10347 10342 10337 10334 10333 10330 10332 10335 10339 10345 10349 10352 10359 10366 10371 10379 10386
10708 10699 10686 10668 10655 10638 10622 10600 10573 10552 10535 10525 10518 10507 10492 10468 10457 10440 10421 10398 10382 10368 10354 10342 10334 10330 10323 10319 10314 10310 10308 10305 10305 10307 10308 10315 10321 10325 10330 10337 10345 10352 10361 10370
10688 10678 10659 10644 10628 10612 10589 10568 10545 10533 10515 10495 10480 10485 10441 10434 10415 10398 10389 10370 10354 10340 10327 10314 10307 10303 10298 10290 10287 10285 10284 10283 10281 10285 10289 10293 10299 10305 10313 10321 10330 10338 10346 10355
10670 10654 10640 10622 10603 10591 10568 10541 10517 10496 10483 10467 10440 10445 10404 10398 10380 10362 10353 10340 10329 10316 10306 10294 10285 10278 10273 10268 10265 10262 10262 10262 10265 10266 10269 10275 10281 10289 10298 10308 10318 10326 10337 10348
10648 10632 10615 10604 10576 10558 10543 10511 10477 10453 10442 10434 10406 10393 10375 10358 10343 10327 10319 10308 10300 10290 10282 10273 10264 10257 10252 10249 10248 10243 10243 10247 10249 10251 10256 10261 10268 10277 10286 10297 10308 10320 10330 10340
10624 10613 10595 10575 10553 10528 10511 10491 10457 10428 10411 10400 10380 10359 10349 10330 10316 10305 10290 10283 10275 10267 10259 10250 10243 10238 10235 10234 10232 10230 10231 10233 10236 10242 10245 10252 10260 10268 10279 10291 10304 10315 10326 10338
10604 10594 10573 10551 10528 10508 10482 10455 10436 10404 10386 10369 10357 10338 10322 10306 10294 10284 10271 10263 10255 10246 10238 10233 10227 10224 10223 10221 10220 10219 10221 10222 10227 10231 10239 10246 10253 10264 10275 10289 10301 10313 10326 10338
10581 10567 10548 10537 10509 10482 10462 10432 10407 10386 10365 10349 10328 10316 10298 10283 10273 10267 10254 10248 10238 10230 10225 10219 10216 10214 10212 10211 10209 10209 10213 10215 10220 10227 10236 10243 10252 10263 10276 10287 10299 10311 10324 10334
10554 10536 10524 10515 10489 10459 10429 10409 10387 10364 10337 10324 10309 10295 10282 10263 10254 10251 10237 10231 10223 10218 10214 10208 10205 10204 10203 10202 10200 10202 10207 10211 10217 10224 10231 10239 10250 10264 10275 10287 10299 10312 10325 10335
10528 10514 10494 10474 10451 10440 10395 10373 10357 10340 10312 10300 10287 10275 10263 10250 10237 10234 10224 10217 10212 10207 10202 10198 10196 10196 10195 10194 10194 10197 10202 10208 10214 10220 10228 10239 10251 10264 10276 10288 10301 10316 10328 10341
10512 10488 10464 10442 10426 10404 10379 10359 10337 10316 10287 10281 10268 10253 10244 10234 10225 10222 10213 10207 10202 10196 10192 10191 10190 10189 10189 10190 10191 10194 10198 10205 10214 10220 10227 10239 10254 10266 10279 10292 10306 10322 10335 10349
10488 10469 10439 10417 10390 10372 10350 10333 10308 10290 10276 10262 10249 10238 10228 10222 10213 10210 10203 10199 10194 10189 10186 10186 10185 10184 10185 10187 10189 10193 10200 10208 10216 10224 10233 10245 10259 10271 10284 10297 10315 10328 10339 10354
10468 10444 10419 10395 10368 10352 10332 10312 10291 10275 10260 10245 10237 10227 10218 10211 10204 10199 10195 10192 10186 10184 10182 10182 10182 10183 10185 10187 10189 10192 10199 10210 10221 10229 10239 10252 10266 10278 10289 10306 10322 10333 10345 10356
10446 10424 10398 10383 10355 10328 10309 10291 10273 10258 10248 10231 10223 10214 10208 10202 10196 10192 10187 10184 10182 10180 10179 10180 10180 10182 10184 10187 10190 10195 10202 10212 10221 10233 10246 10259 10273 10283 10298 10316 10329 10337 10351 10363
10423 10404 10382 10349 10331 10305 10290 10271 10258 10245 10235 10224 10214 10206 10199 10194 10190 10187 10182 10181 10179 10178 10178 10179 10181 10184 10186 10190 10194 10200 10209 10219 10228 10241 10253 10269 10281 10294 10313 10324 10335 10348 10362 10373
10405 10383 10359 10339 10308 10286 10277 10255 10247 10234 10224 10214 10205 10198 10194 10189 10186 10182 10180 10179 10179 10178 10178 10180 10183 10186 10190 10196 10201 10209 10221 10229 10239 10249 10262 10276 10293 10308 10320 10332 10346 10360 10369 10381
10375 10361 10339 10307 10290 10271 10254 10246 10233 10225 10215 10205 10198 10194 10189 10185 10182 10181 10179 10179 10180 10179 10180 10184 10187 10192 10198 10206 10212 10220 10230 10240 10251 10260 10273 10287 10302 10315 10327 10341 10354 10365 10376 10388
10352 10335 10321 10297 10276 10259 10248 10232 10224 10216 10207 10200 10194 10190 10186 10182 10182 10181 10180 10181 10183 10183 10185 10190 10194 10201 10208 10214 10224 10233 10243 10254 10265 10276 10289 10300 10311 10324 10340 10353 10364 10374 10382 10395